Content
SEND FEEDBACK

Daily
Averages
Monthly
Summary
United States of America

PETALUMA, CALIFORNIA


Home > North America > United States > California
Elevation: 1 foot     Latitude: 38 14N     Longitude: 122 38W

WEATHER
 
SELECT A DAY
Number of Records: 78,543;   Date Range: 4/19/11 - 11/19/14
 
SHARE

PRINT THIS DATA

[ ← Previous Day ]
WEATHER ALMANAC - APRIL 10, 2013
[ Next Day → ]
[ °C ]   °F
Weather ElementAverageHighLow
Temperature60 °F77 °F (12:35 pm)44.6 °F (4:35 am)
Dewpoint49.7 °F59 °F (12:35 pm)41 °F (4:35 am)
Humidity71 %94 % (9:55 pm)47 % (11:55 am)
Barometer30.13 in30.20 in (10:15 am)30.06 in (6:35 pm)
Wind Speed6.9 mph15 mph (8:55 pm)
Wind Gust24.2 mph (8:55 pm)
Weather ElementAverage
Visibility9.8 mi
Wind DirectionWSW (263 °)

Weather ElementTotal
Precipitation---
Heating Degree Days4.2 (Base 65)
Growing Degree Days10.8 (Base 50)
Averaged from 71 records on April 10, 2013
WEATHER CONDITIONS BREAKOUT
WIND DIRECTION BREAKOUT
WEATHER BY HOUR - APRIL 10, 2013
[ °C ]   °F
Local TimeTemperatureDewpointHumidityBarometerVisibilityWind DirectionWind SpeedGust SpeedPrecipitationEventsConditions
12:35 AM55.4 °F42.8 °F63 %30.12 in10.0 miWNW (300°)5.8 mphClear
12:55 AM51.8 °F42.8 °F71 %30.12 in10.0 miWNW (300°)5.8 mphClear
1:15 AM55.4 °F44.6 °F67 %30.12 in10.0 miWest (280°)8.1 mphClear
1:35 AM57.2 °F42.8 °F59 %30.12 in10.0 miWest (270°)5.8 mphClear
1:55 AM55.4 °F42.8 °F63 %30.13 in10.0 miWest (260°)5.8 mphClear
2:15 AM55.4 °F42.8 °F63 %30.13 in10.0 miWSW (250°)4.6 mphClear
2:35 AM48.2 °F42.8 °F82 %30.13 in10.0 miCalmClear
2:55 AM48.2 °F42.8 °F82 %30.13 in10.0 miNW (320°)4.6 mphClear
3:15 AM48.2 °F42.8 °F82 %30.13 in10.0 miNW (310°)4.6 mphClear
3:35 AM48.2 °F42.8 °F82 %30.13 in10.0 miNNW (330°)4.6 mphClear
3:55 AM48.2 °F42.8 °F82 %30.13 in10.0 miNNW (340°)3.5 mphClear
4:15 AM46.4 °F42.8 °F87 %30.13 in10.0 miNW (310°)3.5 mphClear
4:35 AM44.6 °F41.0 °F87 %30.14 in10.0 miCalmClear
4:55 AM44.6 °F42.8 °F93 %30.14 in10.0 miCalmClear
5:15 AM44.6 °F41.0 °F87 %30.14 in10.0 miCalmClear
5:35 AM44.6 °F42.8 °F93 %30.14 in10.0 miCalmClear
5:55 AM44.6 °F42.8 °F93 %30.15 in10.0 miCalmClear
6:15 AM44.6 °F42.8 °F93 %30.16 in10.0 miNorth (350°)3.5 mphClear
6:35 AM44.6 °F42.8 °F93 %30.16 in10.0 miNNW (340°)3.5 mphClear
6:55 AM46.4 °F42.8 °F87 %30.17 in10.0 miNNW (330°)3.5 mphClear
7:15 AM46.4 °F44.6 °F93 %30.18 in10.0 miNNW (330°)3.5 mphClear
7:35 AM48.2 °F46.4 °F93 %30.18 in10.0 miCalmClear
7:55 AM53.6 °F46.4 °F77 %30.19 in10.0 miCalmClear
8:15 AM55.4 °F48.2 °F77 %30.19 in10.0 miNNW (330°)3.5 mphClear
8:35 AM57.2 °F48.2 °F72 %30.19 in10.0 miNW (310°)3.5 mphClear
8:55 AM59.0 °F50.0 °F72 %30.19 in10.0 miNW (310°)4.6 mphClear
9:15 AM64.4 °F50.0 °F59 %30.19 in10.0 miWNW (300°)5.8 mphClear
9:35 AM66.2 °F50.0 °F56 %30.19 in10.0 miNW (320°)6.9 mphClear
9:55 AM68.0 °F50.0 °F52 %30.19 in10.0 miNW (310°)5.8 mphClear
10:15 AM68.0 °F50.0 °F52 %30.20 in10.0 miWNW (290°)6.9 mphClear
10:35 AM69.8 °F53.6 °F56 %30.20 in10.0 miWNW (300°)8.1 mphClear
10:55 AM71.6 °F53.6 °F53 %30.19 in10.0 miWNW (300°)5.8 mphClear
11:15 AM71.6 °F53.6 °F53 %30.19 in10.0 miWNW (290°)6.9 mphClear
11:35 AM73.4 °F53.6 °F50 %30.18 in10.0 miWNW (290°)6.9 mphClear
11:55 AM75.2 °F53.6 °F47 %30.18 in10.0 miWNW (300°)5.8 mphClear
12:15 PM75.2 °F53.6 °F47 %30.17 in10.0 miNNW (330°)5.8 mphClear
12:35 PM77.0 °F59.0 °F54 %30.16 in10.0 miNW (320°)3.5 mphClear
12:55 PM77.0 °F59.0 °F54 %30.15 in10.0 miNW (310°)5.8 mphClear
1:15 PM77.0 °F59.0 °F54 %30.14 in10.0 miWNW (290°)9.2 mphClear
1:35 PM77.0 °F59.0 °F54 %30.13 in10.0 miWest (260°)11.5 mphClear
1:55 PM73.4 °F57.2 °F57 %30.14 in10.0 miWest (260°)11.5 mph17.3 mphClear
2:15 PM71.6 °F55.4 °F57 %30.14 in10.0 miWest (280°)9.2 mphClear
2:35 PM73.4 °F57.2 °F57 %30.13 in10.0 miNW (310°)5.8 mphClear
2:55 PM73.4 °F57.2 °F57 %30.12 in10.0 miNW (320°)5.8 mphClear
3:15 PM73.4 °F57.2 °F57 %30.11 in10.0 miWest (280°)9.2 mphClear
3:35 PM73.4 °F55.4 °F53 %30.10 in10.0 miWest (270°)9.2 mphClear
3:55 PM73.4 °F55.4 °F53 %30.10 in10.0 miWest (270°)10.4 mphClear
4:15 PM73.4 °F55.4 °F53 %30.09 in10.0 miWNW (290°)8.1 mphClear
4:35 PM73.4 °F55.4 °F53 %30.08 in10.0 miWest (280°)10.4 mph16.1 mphClear
4:55 PM71.6 °F55.4 °F57 %30.07 in10.0 miWest (280°)10.4 mphClear
5:15 PM71.6 °F55.4 °F57 %30.07 in10.0 miWest (280°)9.2 mphClear
5:35 PM68.0 °F53.6 °F60 %30.07 in10.0 miWest (270°)10.4 mphClear
5:55 PM68.0 °F53.6 °F60 %30.07 in10.0 miWest (280°)11.5 mph17.3 mphClear
6:15 PM68.0 °F53.6 °F60 %30.07 in10.0 miWest (270°)10.4 mphClear
6:35 PM66.2 °F53.6 °F64 %30.06 in10.0 miWest (260°)11.5 mphClear
6:55 PM64.4 °F51.8 °F64 %30.06 in10.0 miWest (270°)12.7 mphClear
7:15 PM60.8 °F50.0 °F68 %30.07 in10.0 miWest (270°)13.8 mphClear
7:35 PM57.2 °F50.0 °F77 %30.07 in10.0 miWNW (290°)11.5 mphClear
7:55 PM55.4 °F50.0 °F82 %30.07 in10.0 miWNW (290°)10.4 mph16.1 mphClear
8:15 PM55.4 °F50.0 °F82 %30.07 in10.0 miWNW (290°)12.7 mph17.3 mphClear
8:35 PM53.6 °F50.0 °F88 %30.07 in10.0 miWest (280°)12.7 mphClear
8:55 PM53.6 °F50.0 °F88 %30.08 in10.0 miWNW (290°)15.0 mph24.2 mphClear
9:15 PM53.6 °F50.0 °F88 %30.09 in4.0 miWNW (290°)13.8 mph18.4 mphClear
9:35 PM53.6 °F50.0 °F88 %30.10 in7.0 miWNW (290°)13.8 mphClear
9:55 PM51.8 °F50.0 °F94 %30.10 in10.0 miWNW (290°)12.7 mphClear
10:15 PM51.8 °F50.0 °F94 %30.10 in10.0 miWNW (290°)11.5 mphClear
10:35 PM53.6 °F50.0 °F88 %30.10 in10.0 miWNW (290°)9.2 mphClear
10:55 PM53.6 °F50.0 °F88 %30.11 in8.0 miNW (310°)6.9 mphClear
11:15 PM53.6 °F50.0 °F88 %30.10 in10.0 miNW (310°)4.6 mphPartly Cloudy
11:35 PM53.6 °F50.0 °F88 %30.10 in10.0 miNW (320°)5.8 mphPartly Cloudy
11:55 PM53.6 °F50.0 °F88 %30.08 in10.0 miNW (320°)5.8 mphPartly Cloudy
Hourly data recorded from KO69, located miles away from Petaluma, California







STORIES FROM OUR PARTNERS